Flag for Spain Weather past 2 weeks in Santa Cruz de Tenerife, Canary Islands, Spain

Now
55 °F

Passing clouds.


Feels Like: 54 °F
Forecast: N/A
Wind: 6 mph from Southeast

Location: Tenerife / Los Rodeos

Current Time: Dec 21, 2014 at 9:55:27 PM

Latest Report: Dec 21, 2014 at 9:00 PM


Visibility: 6 mi

Pressure: 30.30 "Hg

Humidity: 100%

Dew point: 55 °F

Location of Santa Cruz de TenerifeLocation

Historic Weather in Santa Cruz de Tenerife — Graph

°F

Santa Cruz de Tenerife temperature yesterday

Maximum temperature yesterday: 59 °F (at 12:00 PM)
Minimum temperature yesterday: 50 °F (at 7:00 AM)
Average temperature yesterday: 56 °F

Past Weeks' High & Low Weather Summary

 TemperatureHumidityPressure
High64 °F (Dec 10, 1:00 PM)100% (Dec 8, 4:00 PM)30.42 "Hg (Dec 8, 4:00 PM)
Low50 °F (Dec 7, 6:00 AM)41% (Dec 12, 6:00 AM)30.12 "Hg (Dec 13, 3:00 PM)
Average57 °F88%30.31 "Hg
* Reported Dec 6 8:00 PM — Dec 21 8:30 PM, Santa Cruz de Tenerife, Weather by CustomWeather, © 2014

Note: Actual official high and low records may vary slightly from our data, if they occured in-between our weather recording intervals... More about our weather records

Advertising

Santa Cruz de Tenerife weather history for previous 24 hours

 ConditionsComfort  
Time TempWeatherWind HumidityBarometerVisibility
8:30 PM
Dec 21
55 °FPassing clouds.8 mph100%30.30 "Hg5 mi
8:00 PM55 °FPartly cloudy.9 mph100%30.27 "Hg5 mi
7:30 PM55 °FPassing clouds.7 mph94%30.27 "HgN/A
7:00 PM55 °FPassing clouds.6 mph94%30.27 "HgN/A
6:30 PM55 °FPassing clouds.7 mph100%30.27 "HgN/A
6:00 PM57 °FPassing clouds.9 mph94%30.27 "HgN/A
5:30 PM57 °FPassing clouds.8 mph94%30.27 "HgN/A
5:00 PM59 °FPassing clouds.8 mph88%30.27 "HgN/A
4:30 PM59 °FPassing clouds.8 mph88%30.27 "HgN/A
4:00 PM61 °FPassing clouds.8 mph83%30.27 "HgN/A
3:30 PM61 °FPassing clouds.9 mph77%30.27 "HgN/A
3:00 PM59 °FPassing clouds.8 mph82%30.27 "HgN/A
2:30 PM59 °FScattered clouds.8 mph88%30.27 "HgN/A
2:00 PM59 °FScattered clouds.9 mph88%30.30 "HgN/A
1:30 PM59 °FBroken clouds.10 mph94%30.30 "HgN/A
1:00 PM59 °FBroken clouds.10 mph94%30.33 "HgN/A
12:30 PM57 °FBroken clouds.12 mph100%30.33 "Hg6 mi
12:00 PM59 °FFog.12 mph94%30.36 "Hg6 mi
11:30 AM57 °FFog.12 mph100%30.36 "Hg6 mi
11:00 AM57 °FBroken clouds.14 mph100%30.36 "Hg6 mi
10:30 AM57 °FBroken clouds.13 mph100%30.36 "HgN/A
10:00 AM57 °FBroken clouds.12 mph100%30.36 "Hg6 mi
9:30 AM55 °FBroken clouds.14 mph100%30.33 "Hg6 mi
9:00 AM55 °FBroken clouds.12 mph100%30.33 "Hg6 mi
8:51 AM55 °FFog.12 mph100%30.33 "Hg1 mi
8:30 AM55 °FBroken clouds.12 mph100%30.33 "Hg6 mi
8:00 AM55 °FFog.12 mph100%30.33 "Hg0 mi
7:30 AM55 °FPartly cloudy.10 mph100%30.33 "Hg4 mi
7:00 AM55 °FPartly cloudy.9 mph100%30.33 "Hg5 mi
6:30 AM55 °FPartly cloudy.8 mph100%30.33 "Hg6 mi
6:00 AM55 °FPartly cloudy.9 mph100%30.33 "Hg5 mi
11:00 PM
Dec 20
55 °FPassing clouds.7 mph94%30.39 "HgN/A
10:30 PM55 °FPassing clouds.7 mph94%30.36 "HgN/A
10:00 PM55 °FPassing clouds.6 mph94%30.36 "HgN/A
9:30 PM55 °FPassing clouds.5 mph94%30.36 "HgN/A
9:00 PM55 °FPassing clouds.3 mph94%30.36 "HgN/A
Weather by CustomWeather, © 2014

See weather overviewHow to use our weather pages